Time,TemperatureF,DewpointF,PressureIn,WindDirection,WindDirectionDegrees,WindSpeedMPH,WindSpeedGustMPH,Humidity,HourlyPrecipIn,Conditions,Clouds,dailyrainin,SoftwareType,DateUTC
2013-09-17 09:11:00,51.0,49.0,30.29,East,80,1.0,5.0,93,0.00,,,0.00,,2013-09-17 13:11:00,
2013-09-17 09:22:00,51.0,49.0,30.29,East,80,4.0,8.0,92,0.00,,,0.00,,2013-09-17 13:22:00,
2013-09-17 09:42:00,52.0,49.0,30.29,ENE,57,2.0,9.0,91,0.00,,,0.00,,2013-09-17 13:42:00,
2013-09-17 09:52:00,53.0,50.0,30.29,North,10,4.0,9.0,89,0.01,,,0.01,,2013-09-17 13:52:00,
2013-09-17 10:11:00,54.0,50.0,30.29,NE,43,2.0,8.0,87,0.01,,,0.01,,2013-09-17 14:11:00,
2013-09-17 10:22:00,55.0,51.0,30.29,SE,134,1.0,8.0,85,0.01,,,0.01,,2013-09-17 14:22:00,
2013-09-17 10:52:00,57.0,51.0,30.29,ESE,102,4.0,9.0,81,0.00,,,0.01,,2013-09-17 14:52:00,
2013-09-17 11:11:00,58.0,52.0,30.29,ENE,74,2.0,9.0,80,0.00,,,0.01,,2013-09-17 15:11:00,
2013-09-17 11:22:00,60.0,53.0,30.29,NE,37,2.0,7.0,78,0.00,,,0.01,,2013-09-17 15:22:00,
2013-09-17 11:44:00,61.0,53.0,30.29,SE,128,1.0,5.0,76,0.00,,,0.01,,2013-09-17 15:44:00,
2013-09-17 11:53:00,62.0,54.0,30.29,ESE,121,1.0,9.0,74,0.00,,,0.01,,2013-09-17 15:53:00,
2013-09-17 12:13:00,63.0,54.0,30.29,SSE,148,2.0,7.0,73,0.00,,,0.01,,2013-09-17 16:13:00,
2013-09-17 12:23:00,64.0,55.0,30.28,SE,126,3.0,8.0,72,0.00,,,0.01,,2013-09-17 16:23:00,
2013-09-17 12:53:00,66.0,55.0,30.27,SSE,151,2.0,8.0,67,0.00,,,0.01,,2013-09-17 16:53:00,
2013-09-17 13:12:00,67.0,56.0,30.26,ESE,119,2.0,7.0,67,0.00,,,0.01,,2013-09-17 17:12:00,
2013-09-17 13:23:00,68.0,56.0,30.25,SE,125,1.0,8.0,66,0.00,,,0.01,,2013-09-17 17:23:00,
2013-09-17 13:43:00,68.0,55.0,30.25,SE,136,1.0,8.0,64,0.00,,,0.01,,2013-09-17 17:43:00,
2013-09-17 13:53:00,69.0,55.0,30.24,ENE,64,1.0,7.0,62,0.00,,,0.01,,2013-09-17 17:53:00,
2013-09-17 14:12:00,69.0,55.0,30.24,ESE,108,2.0,8.0,61,0.00,,,0.01,,2013-09-17 18:12:00,
2013-09-17 14:22:00,70.0,55.0,30.23,ENE,58,0.0,10.0,59,0.00,,,0.01,,2013-09-17 18:22:00,
2013-09-17 14:42:00,70.0,55.0,30.22,NE,55,2.0,6.0,59,0.00,,,0.01,,2013-09-17 18:42:00,
2013-09-17 14:52:00,71.0,55.0,30.21,ENE,59,0.0,7.0,58,0.00,,,0.01,,2013-09-17 18:52:00,
2013-09-17 15:12:00,71.0,55.0,30.20,ENE,59,3.0,8.0,57,0.00,,,0.01,,2013-09-17 19:12:00,
2013-09-17 15:22:00,71.0,55.0,30.20,ENE,59,3.0,8.0,57,0.00,,,0.01,,2013-09-17 19:22:00,
2013-09-17 15:52:00,71.0,54.0,30.18,East,83,1.0,7.0,56,0.00,,,0.01,,2013-09-17 19:52:00,
2013-09-17 16:11:00,71.0,54.0,30.17,NE,51,2.0,8.0,56,0.00,,,0.01,,2013-09-17 20:11:00,
2013-09-17 16:22:00,72.0,55.0,30.16,NNE,28,1.0,7.0,55,0.00,,,0.01,,2013-09-17 20:22:00,
2013-09-17 16:32:00,72.0,55.0,30.16,NNE,28,1.0,7.0,55,0.00,,,0.01,,2013-09-17 20:32:00,
2013-09-17 16:52:00,72.0,54.0,30.16,NNE,32,2.0,8.0,54,0.00,,,0.01,,2013-09-17 20:52:00,
2013-09-17 17:12:00,72.0,54.0,30.15,East,89,0.0,8.0,54,0.00,,,0.01,,2013-09-17 21:12:00,
2013-09-17 17:22:00,72.0,54.0,30.15,NE,44,1.0,7.0,53,0.00,,,0.01,,2013-09-17 21:22:00,
2013-09-17 17:54:00,72.0,54.0,30.14,NNE,20,1.0,7.0,54,0.00,,,0.01,,2013-09-17 21:54:00,
2013-09-17 18:13:00,72.0,54.0,30.14,ENE,61,1.0,5.0,54,0.00,,,0.01,,2013-09-17 22:13:00,
2013-09-17 18:24:00,71.0,54.0,30.14,ENE,71,1.0,5.0,55,0.00,,,0.01,,2013-09-17 22:24:00,
2013-09-17 18:53:00,71.0,54.0,30.13,ENE,73,0.0,3.0,56,0.00,,,0.01,,2013-09-17 22:53:00,
2013-09-17 19:12:00,71.0,54.0,30.13,NE,55,0.0,5.0,56,0.00,,,0.01,,2013-09-17 23:12:00,
2013-09-17 19:22:00,70.0,55.0,30.12,NE,49,1.0,3.0,58,0.00,,,0.01,,2013-09-17 23:22:00,
2013-09-17 19:52:00,69.0,55.0,30.11,NNE,22,0.0,1.0,62,0.00,,,0.01,,2013-09-17 23:52:00,
2013-09-17 20:11:00,68.0,56.0,30.11,East,82,0.0,0.0,65,0.00,,,0.01,,2013-09-18 00:11:00,
2013-09-17 20:22:00,67.0,56.0,30.11,East,82,0.0,0.0,67,0.00,,,0.01,,2013-09-18 00:22:00,
2013-09-17 20:42:00,66.0,56.0,30.11,ENE,62,0.0,1.0,69,0.00,,,0.01,,2013-09-18 00:42:00,
2013-09-17 20:52:00,66.0,56.0,30.11,NE,55,0.0,0.0,71,0.00,,,0.01,,2013-09-18 00:52:00,
2013-09-17 21:11:00,65.0,55.0,30.11,NE,39,0.0,2.0,71,0.00,,,0.01,,2013-09-18 01:11:00,
2013-09-17 21:22:00,64.0,55.0,30.11,NNE,30,0.0,0.0,73,0.00,,,0.01,,2013-09-18 01:22:00,
2013-09-17 21:42:00,64.0,56.0,30.11,NE,36,0.0,3.0,74,0.00,,,0.01,,2013-09-18 01:42:00,
2013-09-17 21:52:00,63.0,55.0,30.11,NNE,29,0.0,3.0,76,0.00,,,0.01,,2013-09-18 01:52:00,
2013-09-17 22:11:00,63.0,56.0,30.11,NE,38,0.0,2.0,77,0.00,,,0.01,,2013-09-18 02:11:00,
2013-09-17 22:22:00,63.0,56.0,30.11,NE,45,0.0,3.0,77,0.00,,,0.01,,2013-09-18 02:22:00,
2013-09-17 22:43:00,62.0,55.0,30.10,NE,42,0.0,2.0,78,0.00,,,0.01,,2013-09-18 02:43:00,
2013-09-17 22:52:00,62.0,55.0,30.11,ENE,78,0.0,2.0,78,0.00,,,0.01,,2013-09-18 02:52:00,
2013-09-17 23:12:00,62.0,55.0,30.11,NE,35,0.0,2.0,78,0.00,,,0.01,,2013-09-18 03:12:00,